Погода в Николе-Барнуках

Россия / Пензенская область     53°27′12″N   46°19′09″E
темп.,
°C
ветер,
м/с
пор.,
м/с
влажн.,
%
обл.,
%
осадки,
мм/ч
давл.,
гПа
погр.,
м
19 сентября, вс
вс1900:00+2св2277100 0.0 102510
03:00+1св2280100 0.0 102510
06:00+1в2280100 0.0 102619
09:00+7в335297 0.0 1026613
12:00+10вюв3340100 0.0 10251164
15:00+11вюв2236100 0.0 10241344
18:00+9в3545100 0.0 1023101
21:00+7вюв3750100 0.0 1023205
20 сентября, пн
пн2000:00+5в485795 0.0 1024176
03:00+6вюв51053100 0.0 1023379
06:00+6вюв51055100 0.1 1023429
09:00+6вюв51061100 0.4 1023435
12:00+7вюв61071100 1.0 1023889
15:00+6в61181100 2.6 1022660
18:00+6в61384100 1.3 1022744
21:00+6вюв71381100 3.4 1022849
21 сентября, вт
вт2100:00+6в71484100 0.6 1020633
03:00+6вюв71480100 1.4 1019559
06:00+6вюв71487100 1.2 1019566
09:00+6вюв6129399 2.5 1018537
12:00+10юв687775 0.0 1017719
15:00+13вюв676162 0.0 1015898
18:00+10в61165100 0.0 1014413
21:00+9в51270100 0.0 1014344
22 сентября, ср
ср2200:00+8в61173100 0.1 1012283
03:00+9вюв41294100 0.6 1011376
06:00+10вюв5996100 0.4 1011346
09:00+10вюв5994100 2.3 1010400
12:00+10юв2498100 4.7 1010250
15:00+10юв2298100 5.4 101179
18:00+10ююв229419 0.0 101222
21:00+9ю239497 0.0 101334
23 сентября, чт
чт2300:00+10ю1191100 0.0 101412
03:00+10в3390100 0.0 101463
06:00+9вюв2494100 0.0 101491
09:00+11ююв3587100 0.1 1014228
12:00+15юв4670100 0.2 1013741
15:00+12юв6990100 1.3 1012620
18:00+11юв51195100 1.6 1013694
21:00+10ююв71394100 2.4 1013703